Total_Precipitation_Accumulation
0.02 0.03 0.07 0.16 0.20 0.27 0.42 0.40 0.24 0.17 0.15 0.13 0.13 0.13 0.11 0.11 0.16 0.29 0.49 0.58 0.65 0.66 0.65 0.66 0.65 0.66 0.62 0.56 0.60 0.64 0.67 0.70 0.57 0.40 0.38 0.35 0.32 0.27 0.23 0.20 0.15 0.15 0.16
0.02 0.02 0.05 0.14 0.19 0.23 0.30 0.33 0.25 0.19 0.16 0.14 0.12 0.11 0.09 0.10 0.15 0.26 0.41 0.54 0.65 0.73 0.71 0.68 0.57 0.51 0.51 0.50 0.53 0.56 0.55 0.56 0.45 0.33 0.28 0.26 0.27 0.27 0.25 0.20 0.14 0.10 0.12
0.02 0.02 0.04 0.06 0.07 0.08 0.10 0.14 0.19 0.21 0.21 0.18 0.15 0.14 0.18 0.23 0.29 0.35 0.39 0.48 0.58 0.63 0.61 0.54 0.45 0.43 0.43 0.45 0.44 0.45 0.42 0.40 0.35 0.25 0.20 0.19 0.21 0.19 0.17 0.16 0.14 0.15 0.15
0.02 0.03 0.03 0.03 0.03 0.03 0.06 0.10 0.16 0.18 0.19 0.17 0.17 0.20 0.26 0.33 0.36 0.35 0.35 0.39 0.41 0.45 0.44 0.38 0.33 0.31 0.31 0.32 0.32 0.29 0.28 0.26 0.22 0.17 0.13 0.12 0.13 0.15 0.12 0.10 0.11 0.13 0.17
0.03 0.08 0.08 0.06 0.05 0.04 0.06 0.08 0.10 0.10 0.10 0.13 0.17 0.21 0.26 0.30 0.30 0.32 0.32 0.28 0.30 0.29 0.24 0.22 0.18 0.18 0.21 0.22 0.20 0.17 0.17 0.18 0.16 0.15 0.13 0.12 0.12 0.14 0.13 0.10 0.10 0.13 0.16
0.07 0.12 0.15 0.12 0.06 0.03 0.03 0.04 0.05 0.05 0.06 0.10 0.13 0.16 0.18 0.19 0.23 0.23 0.21 0.17 0.16 0.17 0.16 0.13 0.10 0.10 0.11 0.14 0.14 0.12 0.12 0.13 0.15 0.16 0.14 0.14 0.14 0.14 0.12 0.10 0.09 0.10 0.10
0.11 0.10 0.16 0.16 0.06 0.02 0.02 0.03 0.05 0.04 0.06 0.10 0.12 0.12 0.14 0.16 0.12 0.09 0.08 0.09 0.11 0.13 0.13 0.12 0.08 0.06 0.06 0.06 0.07 0.06 0.07 0.08 0.11 0.13 0.13 0.12 0.10 0.10 0.08 0.09 0.13 0.13 0.10
0.14 0.10 0.16 0.16 0.07 0.06 0.06 0.06 0.06 0.06 0.09 0.12 0.13 0.13 0.15 0.16 0.11 0.07 0.05 0.05 0.09 0.10 0.09 0.09 0.08 0.07 0.06 0.04 0.04 0.05 0.05 0.05 0.07 0.09 0.09 0.08 0.06 0.05 0.05 0.07 0.11 0.12 0.13
0.11 0.10 0.15 0.19 0.13 0.12 0.11 0.12 0.12 0.13 0.16 0.16 0.16 0.16 0.17 0.18 0.13 0.08 0.06 0.07 0.09 0.09 0.07 0.06 0.06 0.05 0.03 0.03 0.04 0.04 0.04 0.04 0.06 0.07 0.06 0.05 0.03 0.02 0.01 0.02 0.03 0.04 0.06
0.10 0.11 0.15 0.25 0.25 0.21 0.20 0.20 0.19 0.23 0.25 0.25 0.23 0.20 0.21 0.24 0.19 0.12 0.10 0.11 0.13 0.09 0.07 0.04 0.03 0.03 0.01 0.01 0.04 0.03 0.02 0.02 0.02 0.03 0.02 0.02 0.01 0.00 0.00 0.01 0.03 0.03 0.03
0.13 0.16 0.20 0.28 0.37 0.35 0.33 0.30 0.28 0.28 0.34 0.40 0.41 0.35 0.31 0.31 0.28 0.19 0.14 0.16 0.16 0.11 0.05 0.03 0.02 0.02 0.01 0.01 0.02 0.04 0.02 0.01 0.01 0.01 0.00 0.00 0.00 0.00 0.00 0.00 0.01 0.03 0.04
0.20 0.22 0.27 0.36 0.38 0.39 0.41 0.43 0.45 0.44 0.47 0.52 0.57 0.53 0.48 0.44 0.36 0.26 0.18 0.18 0.18 0.14 0.07 0.02 0.01 0.01 0.01 0.01 0.01 0.01 0.00 0.00 0.01 0.00 0.00 0.00 0.00 0.00 0.00 0.00 0.01 0.02 0.05
0.28 0.29 0.32 0.38 0.46 0.55 0.55 0.52 0.55 0.58 0.61 0.67 0.71 0.67 0.63 0.64 0.54 0.37 0.28 0.24 0.21 0.17 0.09 0.04 0.01 0.01 0.01 0.00 0.00 0.00 0.00 0.00 0.00 0.00 0.00 0.00 0.00 0.00 0.00 0.00 0.00 0.01 0.03
0.34 0.32 0.35 0.40 0.46 0.55 0.66 0.67 0.70 0.71 0.74 0.82 0.83 0.76 0.74 0.79 0.72 0.50 0.39 0.33 0.26 0.17 0.08 0.04 0.01 0.01 0.00 0.00 0.00 0.00 0.00 0.00 0.00 0.00 0.00 0.00 0.00 0.00 0.00 0.00 0.00 0.00 0.00
0.40 0.35 0.34 0.38 0.43 0.50 0.59 0.66 0.72 0.75 0.75 0.79 0.82 0.75 0.75 0.84 0.80 0.61 0.48 0.42 0.31 0.17 0.07 0.03 0.01 0.00 0.00 0.00 0.00 0.00 0.00 0.00 0.00 0.00 0.00 0.00 0.00 0.00 0.00 0.00 0.00 0.00 0.00
0.55 0.45 0.39 0.37 0.41 0.47 0.53 0.53 0.51 0.58 0.60 0.61 0.64 0.59 0.58 0.76 0.82 0.65 0.51 0.46 0.34 0.17 0.07 0.02 0.00 0.00 0.00 0.00 0.00 0.00 0.00 0.00 0.00 0.00 0.00 0.00 0.00 0.00 0.00 0.00 0.00 0.00 0.00
0.75 0.61 0.51 0.43 0.41 0.44 0.51 0.55 0.58 0.54 0.55 0.53 0.52 0.46 0.42 0.64 0.76 0.62 0.47 0.38 0.24 0.13 0.05 0.01 0.00 0.00 0.00 0.00 0.00 0.00 0.00 0.00 0.00 0.00 0.00 0.00 0.00 0.00 0.00 0.00 0.00 0.00 0.00
0.85 0.75 0.61 0.54 0.49 0.45 0.48 0.54 0.61 0.66 0.64 0.53 0.45 0.41 0.36 0.50 0.62 0.54 0.41 0.28 0.16 0.08 0.03 0.01 0.00 0.00 0.00 0.00 0.00 0.00 0.00 0.00 0.00 0.00 0.00 0.00 0.00 0.00 0.00 0.00 0.00 0.00 0.00
0.82 0.77 0.68 0.62 0.58 0.51 0.47 0.51 0.57 0.64 0.67 0.63 0.52 0.42 0.37 0.46 0.53 0.46 0.34 0.20 0.09 0.04 0.01 0.00 0.00 0.00 0.00 0.00 0.00 0.00 0.00 0.00 0.00 0.00 0.00 0.00 0.00 0.00 0.00 0.00 0.00 0.00 0.00
0.67 0.55 0.54 0.58 0.57 0.54 0.51 0.51 0.57 0.61 0.63 0.59 0.50 0.40 0.34 0.37 0.40 0.36 0.27 0.16 0.06 0.02 0.01 0.00 0.00 0.00 0.00 0.00 0.00 0.00 0.00 0.00 0.00 0.00 0.00 0.00 0.00 0.00 0.00 0.00 0.00 0.00 0.00
0.59 0.45 0.35 0.40 0.49 0.53 0.54 0.55 0.59 0.59 0.56 0.49 0.40 0.32 0.24 0.18 0.18 0.16 0.14 0.11 0.04 0.01 0.00 0.00 0.00 0.00 0.00 0.00 0.00 0.00 0.00 0.00 0.00 0.00 0.00 0.00 0.00 0.00 0.00 0.00 0.00 0.00 0.00
0.55 0.44 0.36 0.36 0.42 0.48 0.54 0.60 0.61 0.53 0.45 0.37 0.31 0.26 0.22 0.14 0.10 0.08 0.07 0.06 0.03 0.02 0.01 0.00 0.00 0.00 0.00 0.00 0.00 0.00 0.00 0.00 0.00 0.00 0.00 0.00 0.00 0.00 0.00 0.00 0.00 0.00 0.00
0.50 0.37 0.29 0.29 0.32 0.35 0.44 0.55 0.53 0.43 0.33 0.27 0.23 0.18 0.15 0.12 0.07 0.05 0.05 0.04 0.03 0.02 0.01 0.00 0.00 0.00 0.00 0.00 0.00 0.00 0.00 0.00 0.00 0.00 0.00 0.00 0.00 0.00 0.00 0.00 0.00 0.00 0.00
0.44 0.31 0.21 0.19 0.22 0.29 0.40 0.48 0.42 0.31 0.22 0.18 0.15 0.11 0.09 0.07 0.04 0.03 0.03 0.03 0.02 0.01 0.01 0.00 0.00 0.00 0.00 0.00 0.00 0.00 0.00 0.00 0.00 0.00 0.00 0.00 0.00 0.00 0.00 0.00 0.00 0.00 0.00
0.41 0.31 0.22 0.18 0.19 0.27 0.38 0.42 0.31 0.20 0.14 0.11 0.09 0.07 0.06 0.06 0.04 0.02 0.02 0.02 0.01 0.01 0.01 0.00 0.00 0.00 0.00 0.00 0.00 0.00 0.00 0.00 0.00 0.00 0.00 0.00 0.00 0.00 0.00 0.00 0.00 0.00 0.00
0.38 0.33 0.26 0.21 0.21 0.27 0.33 0.31 0.22 0.14 0.10 0.06 0.05 0.04 0.04 0.05 0.03 0.02 0.02 0.02 0.01 0.01 0.00 0.00 0.00 0.00 0.00 0.00 0.00 0.00 0.00 0.00 0.00 0.00 0.00 0.00 0.00 0.00 0.00 0.00 0.00 0.00 0.00